Greenwood, SC

1:54 PM EST on November 24, 2017 (GMT -0500)
Greenwood County

Weather History for KGRD - February, 2014

Change the Weather History Date:

Thursday, February 13, 2014

  Actual Average (KAND) Record (KAND)
Temperature  
Mean Temperature 39 °F -  
Max Temperature 50 °F 54 °F 75 °F (1976)
Min Temperature 28 °F 33 °F 14 °F (1955)
Degree Days  
Heating Degree Days 26    
Moisture  
Dew Point 29 °F    
Average Humidity 81    
Maximum Humidity 93    
Minimum Humidity 50    
Precipitation  
Precipitation 0.04 in - - ()
Sea Level Pressure  
Sea Level Pressure 29.71 in    
Wind  
Wind Speed 8 mph (WNW)    
Max Wind Speed 13 mph    
Max Gust Speed 22 mph    
Visibility 7 miles    
Events Rain , Snow    
Averages and records for this station are not official NWS values.
T = Trace of Precipitation, MM = Missing Value Source: NWS Daily Summary

Daily Weather History Graph

Daily Weather History Graph

Search for Another Location

Airport or City:

Trip Planner

Search our weather history database for the weather conditions in past years. The results will help you decide how hot, cold, wet, or windy it might be!

Date:

Astronomy

Feb. 13, 2014 Rise Set
Actual Time 7:15 AM EST 6:10 PM EST
Civil Twilight 6:49 AM EST 6:36 PM EST
Nautical Twilight 6:20 AM EST 7:05 PM EST
Astronomical Twilight 5:51 AM EST 7:34 PM EST
Moon 5:17 PM EST (2/13) 6:07 AM EST (2/13)
Length of Visible Light 11h 46m
Length of Day
10h 54m
Waxing Gibbous, 98% of the Moon is Illuminated
Feb 13
Waxing Gibbous
Feb 14
Full
Feb 22
Last Quarter
Mar 1
New
Mar 8
First Quarter

Hourly Weather History & Observations

Time (EST) Temp. Windchill Dew Point Humidity Pressure Visibility Wind Dir Wind Speed Gust Speed Precip Events Conditions
12:13 AM 28.4 °F 20.4 °F 24.8 °F 86% 29.80 in 8.0 mi NNE 8.1 mph - 0.00 in Rain Light Freezing Rain
12:41 AM 28.4 °F 19.1 °F 24.8 °F 86% 29.78 in 8.0 mi NNE 10.4 mph - 0.00 in Rain Light Freezing Rain
12:56 AM 28.0 °F 19.3 °F 25.0 °F 88% 29.80 in 9.0 mi NNE 9.2 mph - 0.00 in   Overcast
1:08 AM 28.4 °F 19.7 °F 24.8 °F 86% 29.77 in 9.0 mi NNE 9.2 mph - N/A   Overcast
1:51 AM 28.4 °F 19.1 °F 26.6 °F 93% 29.74 in 3.0 mi NNE 10.4 mph - 0.00 in Rain Light Freezing Rain
1:56 AM 28.9 °F 19.2 °F 26.1 °F 89% 29.75 in 3.0 mi NNE 11.5 mph - 0.01 in Rain Light Freezing Rain
2:56 AM 28.9 °F 19.8 °F 26.1 °F 89% 29.72 in 7.0 mi NNE 10.4 mph - 0.00 in Rain Light Freezing Rain
3:08 AM 28.4 °F 18.5 °F 26.6 °F 93% 29.71 in 9.0 mi NNE 11.5 mph - 0.00 in   Overcast
3:56 AM 30.0 °F 23.2 °F 27.0 °F 88% 29.70 in 8.0 mi NNE 6.9 mph - 0.00 in   Overcast
4:56 AM 30.0 °F 23.2 °F 27.0 °F 88% 29.69 in 9.0 mi North 6.9 mph - 0.01 in   Overcast
5:56 AM 30.0 °F - 27.0 °F 88% 29.68 in 10.0 mi Calm Calm - 0.00 in   Overcast
6:51 AM 30.2 °F 26.7 °F 28.4 °F 93% 29.67 in 1.8 mi WNW 3.5 mph - 0.01 in Snow Light Snow
6:56 AM 30.0 °F 26.5 °F 28.0 °F 92% 29.69 in 1.5 mi WNW 3.5 mph - 0.01 in Snow Light Snow
7:01 AM 30.2 °F 25.4 °F 28.4 °F 93% 29.68 in 2.0 mi West 4.6 mph - 0.00 in Snow Light Snow
7:29 AM 30.2 °F 25.4 °F 28.4 °F 93% 29.68 in 1.8 mi West 4.6 mph - 0.00 in Snow Light Snow
7:41 AM 30.2 °F - 28.4 °F 93% 29.68 in 2.0 mi Calm Calm - 0.00 in Snow Light Snow
7:56 AM 30.9 °F 27.5 °F 28.9 °F 92% 29.70 in 2.0 mi West 3.5 mph - 0.00 in Snow Light Snow
8:12 AM 30.2 °F 25.4 °F 28.4 °F 93% 29.68 in 3.0 mi West 4.6 mph - 0.00 in Snow Light Snow
8:35 AM 32.0 °F 26.4 °F 30.2 °F 93% 29.67 in 5.0 mi West 5.8 mph - 0.00 in   Overcast
8:56 AM 33.1 °F 26.9 °F 30.9 °F 92% 29.69 in 8.0 mi West 6.9 mph - 0.01 in   Overcast
9:13 AM 33.8 °F 28.6 °F 30.2 °F 87% 29.68 in 10.0 mi West 5.8 mph - N/A   Overcast
9:49 AM 33.8 °F 28.6 °F 30.2 °F 87% 29.68 in 2.5 mi WSW 5.8 mph - 0.00 in Snow Light Snow
9:56 AM 34.0 °F 27.2 °F 30.9 °F 89% 29.70 in 3.0 mi WSW 8.1 mph - 0.00 in Snow Light Snow
10:56 AM 35.1 °F 31.0 °F 32.0 °F 89% 29.69 in 6.0 mi WSW 4.6 mph - 0.00 in   Overcast
11:24 AM 35.6 °F 28.6 °F 32.0 °F 87% 29.68 in 10.0 mi West 9.2 mph - N/A   Overcast
11:56 AM 36.0 °F 30.3 °F 32.0 °F 86% 29.70 in 9.0 mi West 6.9 mph - N/A   Overcast
12:43 PM 39.2 °F 37.0 °F 33.8 °F 81% 29.66 in 10.0 mi Variable 3.5 mph - N/A   Overcast
12:56 PM 39.9 °F 35.8 °F 33.1 °F 77% 29.67 in 10.0 mi Variable 5.8 mph - N/A   Overcast
1:31 PM 41.0 °F 33.9 °F 33.8 °F 76% 29.64 in 10.0 mi West 12.7 mph - N/A   Mostly Cloudy
1:56 PM 43.0 °F 38.8 °F 34.0 °F 71% 29.65 in 10.0 mi Variable 6.9 mph 16.1 mph N/A   Scattered Clouds
2:56 PM 46.9 °F - 30.9 °F 54% 29.65 in 10.0 mi West 9.2 mph - N/A   Clear
3:56 PM 48.9 °F - 30.9 °F 50% 29.66 in 10.0 mi West 10.4 mph 19.6 mph N/A   Clear
4:56 PM 50.0 °F - 32.0 °F 50% 29.68 in 10.0 mi West 6.9 mph - N/A   Clear
5:56 PM 48.0 °F - 32.0 °F 54% 29.71 in 10.0 mi WSW 8.1 mph - N/A   Clear
6:56 PM 45.0 °F 39.7 °F 32.0 °F 60% 29.75 in 10.0 mi West 10.4 mph - N/A   Clear
7:56 PM 43.0 °F 37.2 °F 30.9 °F 62% 29.78 in 10.0 mi West 10.4 mph - N/A   Clear
8:56 PM 41.0 °F 35.2 °F 30.0 °F 65% 29.80 in 10.0 mi West 9.2 mph 16.1 mph N/A   Clear
9:56 PM 39.9 °F 35.1 °F 28.9 °F 65% 29.81 in 10.0 mi West 6.9 mph - N/A   Clear
10:56 PM 39.0 °F 34.0 °F 28.0 °F 65% 29.81 in 10.0 mi West 6.9 mph - N/A   Clear
11:56 PM 39.0 °F 31.8 °F 27.0 °F 62% 29.81 in 10.0 mi West 11.5 mph 21.9 mph N/A   Clear